Location: Bergnershof
(48.9468°N, 10.9431°E)
Time: 04:46:44
(UTC+00:00)

Cosmos 2219 Rocket - Visible Passes

Search period start: 15 June 2021 00:00
Search period end: 25 June 2021 00:00
Orbit: 827 x 847 km, 71.0° (Epoch: 14 June)

Date Brightness Start Highest point End Pass type
(mag) Time Alt. Az. Time Alt. Az. Time Alt. Az.
15 Jun 5.1 01:31:51 10° NNW 01:32:15 10° NNW 01:32:38 10° NNW visible
15 Jun 2.4 21:41:31 19° S 21:45:32 55° ESE 21:51:05 10° NE visible
15 Jun 3.8 23:24:45 10° WSW 23:29:48 32° NW 23:34:52 10° NNE visible
16 Jun 5.0 01:14:41 10° NNW 01:15:43 10° NNW 01:16:44 10° NNW visible
16 Jun 2.4 21:24:38 15° S 21:29:10 51° ESE 21:34:39 10° NE visible
16 Jun 3.7 23:08:13 10° WSW 23:13:20 34° NW 23:18:29 10° NNE visible
17 Jun 5.0 00:57:47 10° NW 00:59:12 11° NNW 01:00:37 10° N visible
17 Jun 2.5 21:07:37 11° S 21:12:46 48° ESE 21:18:12 10° NE visible
17 Jun 3.6 22:51:42 10° WSW 22:56:53 35° NW 23:02:06 10° NNE visible
18 Jun 5.0 00:40:58 10° NW 00:42:41 11° NNW 00:44:24 10° N visible
18 Jun 2.6 20:51:01 10° S 20:56:23 44° ESE 21:01:46 10° NE visible
18 Jun 3.6 22:35:11 10° WSW 22:40:26 37° NW 22:45:43 10° NNE visible
19 Jun 5.0 00:24:11 10° NW 00:26:10 12° NNW 00:28:09 10° N visible
19 Jun 2.7 20:34:43 10° S 20:40:00 41° ESE 20:45:18 10° NE visible
19 Jun 3.5 22:18:41 10° WSW 22:23:59 40° NW 22:29:19 10° NNE visible
20 Jun 5.0 00:07:26 10° NW 00:09:39 12° NNW 00:11:52 10° N visible
20 Jun 2.7 20:18:25 10° S 20:23:37 39° ESE 20:28:50 10° NE visible
20 Jun 3.4 22:02:10 10° WSW 22:07:33 42° NW 22:12:57 10° NNE visible
20 Jun 5.0 23:50:42 10° NW 23:53:08 13° NNW 23:55:35 10° N visible
21 Jun 2.8 20:02:07 10° S 20:07:15 36° ESE 20:12:23 10° NE visible
21 Jun 3.3 21:45:41 10° SW 21:51:06 44° NW 21:56:33 10° NNE visible
21 Jun 5.0 23:34:00 10° WNW 23:36:38 13° NNW 23:39:16 10° N visible
22 Jun 3.3 21:29:12 10° SW 21:34:40 47° NW 21:40:10 10° NNE visible
22 Jun 5.0 23:17:18 10° WNW 23:20:07 14° NNW 23:22:58 10° N visible
23 Jun 3.2 21:12:43 10° SW 21:18:14 50° NW 21:23:46 10° NNE visible
23 Jun 5.0 23:00:36 10° WNW 23:03:37 14° NNW 23:06:38 10° N visible
24 Jun 3.1 20:56:15 10° SW 21:01:48 53° NW 21:07:22 10° NNE visible
24 Jun 5.0 22:43:57 10° WNW 22:47:07 15° NNW 22:50:18 10° N visible
